Regional Weather Roundup
Issued by NWS

Home | Current Version | Previous Version | Text Only | Print | Product List | Glossary Off
Versions: 1 2 3 4 5 6 7 8 9 10 11 12 13 14 15 16 17 18 19 20 21 22 23 24 25 26 27

000
ASUS45 KSLC 220110
RWRUT

UTAH REGIONAL WEATHER ROUNDUP
NATIONAL WEATHER SERVICE SALT LAKE CITY UT
600 PM MST TUE NOV 21 2017

UTZ001>011-023>025-220200-

NORTHERN UTAH

CITY           SKY/WX    TMP DP  RH WIND       PRES   REMARKS
BRIGHAM CITY   MOCLDY    50  40  68 NE3       30.36R
HILL AFB       MOCLDY    52  38  60 CALM      30.35S
LOGAN          MOCLDY    50  40  68 N8        30.35R
OGDEN          MOCLDY    50  38  63 CALM      30.34S
SALT LAKE CITY MOCLDY    54  43  66 CALM      30.34R
TOOELE VALLEY  PTCLDY    46  41  81 SE3       30.35S
WENDOVER       CLOUDY    51  38  60 CALM      30.34S
HEBER CITY       N/A     45  36  70 CALM      30.35S
WEST JORDAN    MOCLDY    49  42  76 SW5       30.36R

$$

UTZ011>015-024>027-220200-

CENTRAL/NORTHEAST UTAH

CITY           SKY/WX    TMP DP  RH WIND       PRES   REMARKS
PROVO AIRPORT  PTCLDY    48  38  68 NW7       30.35S
MOAB/CANYONLAN PTCLDY    46  12  25 NW8       30.33R
DELTA          MOCLDY    52  28  40 SE3       30.36S
PRICE          PTCLDY    49  21  33 E5        30.34F
RICHFIELD      CLEAR     46  36  66 CALM      30.39R
ROOSEVELT      CLOUDY    43  25  49 SW6       30.35S
VERNAL         CLOUDY    43  29  57 W5        30.34R

$$

UTZ013>016-019>022-027-220200-

SOUTHERN UTAH

CITY           SKY/WX    TMP DP  RH WIND       PRES   REMARKS
BRYCE CANYON   MOCLDY    39  27  62 W3        30.44R
CEDAR CITY     MOCLDY    53  34  48 N8        30.35R
MILFORD        MOCLDY    52  32  46 E3        30.34S
ST GEORGE      PTCLDY    60  12  15 CALM      30.24R
HANKSVILLE     PTCLDY    50  14  23 NE6       30.36R
KANAB          CLEAR     57  30  35 NE6       30.35R
BLANDING         N/A     52  31  44 NW10      30.39R

$$

REGIONAL REPORTS     COLORADO/ARIZONA

CITY           SKY/WX    TMP DP  RH WIND       PRES   REMARKS
CRAIG, CO      CLOUDY    39  32  76 CALM      30.36R
GRAND JUNCTION CLOUDY    47  21  35 N7        30.34R
RIFLE, CO      CLOUDY    40  33  76 CALM      30.38R
MONTROSE, CO   CLOUDY    44  26  49 CALM      30.37R
CORTEZ, CO     CLEAR     53  30  41 N9        30.32R
COLORADO CITY    N/A     59  28  31 CALM      30.33R
PAGE, AZ       MOCLDY    54  19  25 CALM      30.30R
GRAND CANYON   MOCLDY    50  20  30 NE5       30.39R
KINGMAN, AZ    CLOUDY    62  18  18 NE8       30.23R
FLAGSTAFF, AZ  MOCLDY    52  27  38 E8        30.38R

$$

REGIONAL REPORTS    NEVADA/IDAHO/WYOMING

CITY           SKY/WX    TMP DP  RH WIND       PRES   REMARKS
LAS VEGAS, NV  MOCLDY    68  21  16 CALM      30.18S
ELY, NY        PTCLDY    51  35  54 SE3       30.38R
ELKO, NV       MOCLDY    51  44  77 NW3       30.33S
POCATELLO, ID  LGT RAIN  45  42  89 N3        30.34R
BURLEY, ID     CLOUDY    52  47  83 NE5       30.30S
FORT BRIDGER,  CLOUDY    43  38  82 W5        30.42R
EVANSTON, WY   CLOUDY    43  37  79 W9        30.40R
ROCK SPRINGS,  CLOUDY    42  33  70 W17       30.36R
KEMMERER, WY   CLOUDY    37  34  87 SW9       30.40S WCI  31

$$




USA.gov is the U.S. government's official web portal to all federal, state and local government web resources and services.